CZ-6A DEB

Satellite information

Favourite Embed

Satellite Type and Status

DEBRISIN ORBIT

Key statistics

Satellite CZ-6A DEB at a glance.

Uptime

969

Days in orbit

Revolutions

≈ 14.6

Per day

Orbit

SSO

Sun Synchronous Orbit

Inclination

98.6

Latest

Satellite identification and parameters

Extended collection of information and parameters for CZ-6A DEB.

Object identification

Identified? True

Debris? True

Object name: CZ-6A DEB

International designator: 2022-151PH

Object number (NORAD): 54631

Object ID (CCSDS): 54631

Country: PEOPLES REPUBLIC OF CHINA (PRC)

Current information (Y/N): Y

RCS size: SMALL

Orbital parameters

Period: 98.793 minutes

Inclination: 98.6445 deg

SMA: 7079.076 km

Apoapsis: 759.735 km

Periapsis: 642.146 km

RAAN: 226.4385 deg

Eccentricy: 0.0083054

Argument of periapsis: 295.0503 deg

Mean anomaly: 64.2089 deg

Mean motion: 14.57598491 rev/day

Mean motion (dot): 0.0000659 rev/day2

B* drag term: 0.0013905 1/REarth

Two-line elements (TLE)

Creation date: July 6, 2025, 10:26 p.m.

Reference frame: TEME

Reference center: EARTH

Epoch: July 6, 2025, 1:18 p.m. UTC

TLE line 0: 0 CZ-6A DEB

TLE line 1: 1 54631U 22151PH 25187.55477889 .00006590 00000-0 13905-2 0 9996

TLE line 2: 2 54631 98.6445 226.4385 0083054 295.0503 64.2089 14.57598491138285

Live tracking on map

Real-time ground track for satellite CZ-6A DEB.

In-orbit conjunctions

A list of the most updated potential collisions computed for object CZ-6A DEB.

Target Orbit TCA Probability of collision Miss distance Type
COSMOS 773 LEO 2025-01-16 12:02:40 0.0001012972 936.0 (m) PAYLOAD
SL-8 R/B LEO 2024-06-11 19:33:23 0.0001733571 522.0 (m) ROCKET BODY

Associated space launch

Chinese satellite reported for atmospheric/ocean/environmental/spatial parameter research purposes, details TBD.

CZ-6A DEB was lifted into orbit during the mission ‘Long March 6A | Yunhai 3’, on board a Long March 6A space rocket.

The launch took place on Nov. 11, 2022, 10:52 p.m. from Launch Complex 9A.

For more information about the launch, click the button.

Launch to space Long March 6A | Yunhai 3
Long March 6A | Yunhai 3

Agency: N/A

Status: Launch Successful

Launch date: Nov. 11, 2022, 10:52 p.m. UTC

Rocket: Long March 6A

Launch pad: Launch Complex 9A

Location: Taiyuan Satellite Launch Center, People's Republic of China

...

Latest news about this satellite

There are no fresh news available about this satellite. Check back as we update our databases every day.


Newsletter sign-up

Weekly statistics, charts and insights to help you stay on top of the space industry.